Overview Statistics Trail Chart Weather Telemetry Raw packets
 

This is the latest recevied weather packets stored in our database for station/object IZ1UQG-N2. If no packets are shown the sender has not sent any weather packets the latest 10 day(s).

<< 538 539 540 541 542 543 544 >>
Time Temp. Humidity Pressure Rain* Wind** Luminosity Snow
1787927403 26.67° C 70% 1011.3 hPa 0 mm - 441 W/m² -
1787927343 26.67° C 71% 1011.3 hPa 0 mm - 367 W/m² -
1787927283 26.67° C 70% 1011.5 hPa 0 mm - 301 W/m² -
1787927224 26.67° C 71% 1011.4 hPa 0 mm - 338 W/m² -
1787927164 26.67° C 70% 1011.4 hPa 0 mm - 290 W/m² -
1787927104 26.67° C 70% 1011.4 hPa 0 mm - 267 W/m² -
1787927043 26.67° C 69% 1011.4 hPa 0 mm - 250 W/m² -
1787926984 26.67° C 69% 1011.5 hPa 0 mm - 253 W/m² -
1787926923 26.67° C 70% 1011.4 hPa 0 mm - 218 W/m² -
1787926862 26.67° C 70% 1011.4 hPa 0 mm - 246 W/m² -
1787926802 26.67° C 70% 1011.4 hPa 0 mm - 251 W/m² -
1787926743 26.67° C 70% 1011.4 hPa 0 mm - 294 W/m² -
1787926682 27.22° C 71% 1011.3 hPa 0 mm - 276 W/m² -
1787926622 27.22° C 71% 1011.3 hPa 0 mm - 287 W/m² -
1787926564 27.22° C 72% 1011.3 hPa 0 mm - 325 W/m² -
1787926504 27.22° C 72% 1011.3 hPa 0 mm - 327 W/m² -
1787926443 27.22° C 72% 1011.3 hPa 0 mm - 380 W/m² -
1787926385 27.22° C 72% 1011.2 hPa 0 mm - 396 W/m² -
1787926322 27.22° C 72% 1011.3 hPa 0 mm - 508 W/m² -
1787926264 27.22° C 72% 1011.4 hPa 0 mm - 594 W/m² -
1787926204 26.67° C 72% 1011.4 hPa 0 mm - 589 W/m² -
1787926143 26.67° C 72% 1011.4 hPa 0 mm - 605 W/m² -
1787926084 26.67° C 74% 1011.5 hPa 0 mm - 561 W/m² -
1787926024 26.67° C 74% 1011.5 hPa 0 mm - 633 W/m² -
1787925964 26.67° C 74% 1011.5 hPa 0 mm - 664 W/m² -

* Rain latest hour (hover to see other rain measurements)
** Current wind speed in m/s (hover to see current wind gust speed)